Cairns, Australia

8:09 AM AEST on January 17, 2017 (GMT +1000)
Cairns International

Weather History for YBCS - December, 2013

Change the Weather History Date:

Friday, December 13, 2013

  Actual Average Record
Temperature  
Mean Temperature 79 °F -  
Max Temperature 84 °F 88 °F 95 °F (2011)
Min Temperature 74 °F 74 °F 69 °F (2005)
Cooling Degree Days 14    
Growing Degree Days 29 (Base 50)    
Moisture  
Dew Point 73 °F    
Average Humidity 80    
Maximum Humidity 94    
Minimum Humidity 55    
Precipitation  
Precipitation 0.04 in 0.37 in - ()
Sea Level Pressure  
Sea Level Pressure 29.78 in    
Wind  
Wind Speed 6 mph ()    
Max Wind Speed 13 mph    
Max Gust Speed -    
Visibility 6.7 miles    
Events Rain    
Averages and records for this station are not official NWS values.
T = Trace of Precipitation, MM = Missing Value Source: Averaged Metar Reports

Daily Weather History Graph

Daily Weather History Graph

Search for Another Location

Airport or City:

Trip Planner

Search our weather history database for the weather conditions in past years. The results will help you decide how hot, cold, wet, or windy it might be!

Date:

Astronomy

Dec. 13, 2013 Rise Set
Actual Time 5:37 AM AEST 6:44 PM AEST
Civil Twilight 5:13 AM AEST 7:08 PM AEST
Nautical Twilight 4:45 AM AEST 7:37 PM AEST
Astronomical Twilight 4:16 AM AEST 8:06 PM AEST
Moon 3:14 PM AEST (12/13) 2:18 AM AEST (12/13)
Length of Visible Light 13h 55m
Length of Day
13h 07m
Waxing Gibbous, 83% of the Moon is Illuminated
Dec 13
Waxing Gibbous
Dec 17
Full
Dec 25
Last Quarter
Jan 1
New
Jan 8
First Quarter

Hourly Weather History & Observations

Time (AEST) Temp. Heat Index Dew Point Humidity Pressure Visibility Wind Dir Wind Speed Gust Speed Precip Events Conditions
12:00 AM 77 °F - 74 °F 86% 29.81 in - South 12.7 mph - -   Overcast
12:00 AM 77.0 °F - 73.4 °F 89% 29.80 in 6.2 mi South 12.7 mph - N/A Rain Light Rain Showers
12:30 AM 77.0 °F - 73.4 °F 89% 29.77 in 6.2 mi SE 6.9 mph - N/A   Mostly Cloudy
1:00 AM 76 °F - 73 °F 88% 29.77 in - South 5.8 mph - -  
1:00 AM 77.0 °F - 73.4 °F 89% 29.74 in 6.2 mi South 5.8 mph - N/A   Mostly Cloudy
1:30 AM 77.0 °F - 75.2 °F 94% 29.74 in 6.2 mi NNE 2.3 mph - N/A   Mostly Cloudy
2:00 AM 75.2 °F - 73.4 °F 94% 29.74 in 6.2 mi West 4.6 mph - N/A Rain Light Rain Showers
2:30 AM 75.2 °F - 73.4 °F 94% 29.71 in 6.2 mi West 5.8 mph - N/A   Mostly Cloudy
3:00 AM 75 °F - 73 °F 92% 29.72 in - West 4.6 mph - -  
3:00 AM 75.2 °F - 73.4 °F 94% 29.71 in 6.2 mi West 4.6 mph - N/A   Scattered Clouds
3:30 AM 75.2 °F - 73.4 °F 94% 29.71 in 6.2 mi WSW 3.5 mph - N/A   Scattered Clouds
4:00 AM 74 °F - 73 °F 94% 29.74 in - SW 1.2 mph - -  
4:00 AM 75.2 °F - 73.4 °F 94% 29.71 in 6.2 mi SW 1.2 mph - N/A   Scattered Clouds
4:30 AM 75.2 °F - 73.4 °F 94% 29.74 in 6.2 mi West 1.2 mph - N/A   Mostly Cloudy
5:00 AM 75.2 °F - 73.4 °F 94% 29.74 in 6.2 mi WSW 1.2 mph - N/A   Mostly Cloudy
5:30 AM 75.2 °F - 73.4 °F 94% 29.74 in 6.2 mi SE 9.2 mph - N/A   Mostly Cloudy
6:00 AM 75 °F - 73 °F 92% 29.77 in - SE 10.4 mph - -   Overcast
6:00 AM 75.2 °F - 73.4 °F 94% 29.77 in 6.2 mi SE 10.4 mph - N/A   Mostly Cloudy
6:30 AM 77.0 °F - 73.4 °F 89% 29.77 in 6.2 mi SSE 9.2 mph - N/A   Mostly Cloudy
7:00 AM 78 °F - 74 °F 82% 29.82 in - South 4.6 mph - -  
7:00 AM 77.0 °F - 73.4 °F 89% 29.80 in 6.2 mi South 4.6 mph - N/A   Mostly Cloudy
7:30 AM 78.8 °F - 73.4 °F 83% 29.80 in 6.2 mi North 1.2 mph - N/A   Mostly Cloudy
8:00 AM 80.6 °F 84.6 °F 71.6 °F 74% 29.80 in 6.2 mi SSE 3.5 mph - N/A   Mostly Cloudy
8:30 AM 80.6 °F 85.4 °F 73.4 °F 79% 29.83 in 6.2 mi SE 8.1 mph - N/A   Mostly Cloudy
9:00 AM 83 °F - 74 °F 66% 29.83 in 19 mi South 5.8 mph - -   Partly Cloudy
9:00 AM 84.2 °F 90.9 °F 73.4 °F 70% 29.83 in 6.2 mi South 5.8 mph - N/A   Mostly Cloudy
9:30 AM 84.2 °F 89.6 °F 71.6 °F 66% 29.83 in 6.2 mi South 5.8 mph - N/A   Mostly Cloudy
10:00 AM 84 °F - 70 °F 55% 29.84 in - ESE 5.8 mph - -  
10:00 AM 84.2 °F 88.4 °F 69.8 °F 62% 29.83 in 6.2 mi ESE 5.8 mph - N/A   Mostly Cloudy
10:30 AM 84.2 °F 89.6 °F 71.6 °F 66% 29.83 in 6.2 mi ESE 5.8 mph - N/A   Mostly Cloudy
11:00 AM 80.6 °F 85.4 °F 73.4 °F 79% 29.83 in 6.2 mi East 11.5 mph - N/A Rain Light Rain Showers
11:30 AM 80.6 °F 85.4 °F 73.4 °F 79% 29.83 in 6.2 mi ENE 12.7 mph - N/A   Mostly Cloudy
12:00 PM 80 °F - 73 °F 75% 29.83 in - ENE 10.4 mph - -   Overcast
12:00 PM 78.8 °F - 73.4 °F 83% 29.83 in 6.2 mi ENE 10.4 mph - N/A   Mostly Cloudy
12:30 PM 80.6 °F 85.4 °F 73.4 °F 79% 29.80 in 6.2 mi ENE 10.4 mph - N/A   Mostly Cloudy
1:00 PM 81 °F - 72 °F 68% 29.82 in - ENE 8.1 mph - -  
1:00 PM 80.6 °F 84.6 °F 71.6 °F 74% 29.80 in 6.2 mi ENE 8.1 mph - N/A   Mostly Cloudy
1:30 PM 82.4 °F 88.2 °F 73.4 °F 74% 29.80 in 6.2 mi ENE 8.1 mph - N/A   Mostly Cloudy
2:00 PM 82.4 °F 87.2 °F 71.6 °F 70% 29.77 in 6.2 mi NE 9.2 mph - N/A   Mostly Cloudy
2:30 PM 84.2 °F 89.6 °F 71.6 °F 66% 29.74 in 6.2 mi NE 8.1 mph - N/A   Scattered Clouds
3:00 PM 84 °F - 71 °F 57% 29.75 in 19 mi NE 9.2 mph - -   Partly Cloudy
3:00 PM 84.2 °F 89.6 °F 71.6 °F 66% 29.74 in 6.2 mi NE 9.2 mph - N/A   Partly Cloudy
3:30 PM 84.2 °F 89.6 °F 71.6 °F 66% 29.71 in 6.2 mi NE 8.1 mph - N/A   Partly Cloudy
4:00 PM 84 °F - 72 °F 58% 29.73 in - NE 10.4 mph - -  
4:00 PM 84.2 °F 89.6 °F 71.6 °F 66% 29.71 in 6.2 mi NE 10.4 mph - N/A   Partly Cloudy
4:30 PM 82.4 °F 87.2 °F 71.6 °F 70% 29.71 in 6.2 mi NE 8.1 mph - N/A   Scattered Clouds
5:00 PM 82.4 °F 87.2 °F 71.6 °F 70% 29.71 in 6.2 mi NE 8.1 mph - N/A   Mostly Cloudy
5:30 PM 82.4 °F 87.2 °F 71.6 °F 70% 29.71 in 6.2 mi NNE 8.1 mph - N/A   Mostly Cloudy
6:00 PM 82 °F - 71 °F 62% 29.74 in - NE 6.9 mph - -   Overcast
6:00 PM 82.4 °F 87.2 °F 71.6 °F 70% 29.74 in 6.2 mi NE 6.9 mph - N/A   Mostly Cloudy
6:30 PM 82.4 °F 86.3 °F 69.8 °F 66% 29.74 in 6.2 mi ENE 9.2 mph - N/A   Mostly Cloudy
7:00 PM 82 °F - 72 °F 63% 29.79 in - East 6.9 mph - -  
7:00 PM 82.4 °F 87.2 °F 71.6 °F 70% 29.77 in 6.2 mi East 6.9 mph - N/A   Mostly Cloudy
7:30 PM 80.6 °F 84.6 °F 71.6 °F 74% 29.77 in 6.2 mi South 5.8 mph - N/A   Mostly Cloudy
8:00 PM 80.6 °F 84.6 °F 71.6 °F 74% 29.80 in 6.2 mi WSW 5.8 mph - N/A   Mostly Cloudy
8:30 PM 80.6 °F 85.4 °F 73.4 °F 79% 29.80 in 6.2 mi SW 4.6 mph - N/A Rain Light Rain Showers
9:00 PM 78 °F - 74 °F 83% 29.80 in - WSW 3.5 mph - -   Overcast
9:00 PM 78.8 °F - 73.4 °F 83% 29.80 in 6.2 mi SW 3.5 mph - N/A Rain Light Rain
9:30 PM 77.0 °F - 75.2 °F 94% 29.80 in 6.2 mi WSW 3.5 mph - N/A Rain Light Rain
10:00 PM 77 °F - 75 °F 92% 29.84 in - WSW 1.2 mph - -  
10:00 PM 77.0 °F - 75.2 °F 94% 29.83 in 6.2 mi WSW 1.2 mph - N/A   Overcast
10:30 PM 77.0 °F - 75.2 °F 94% 29.83 in 6.2 mi Calm Calm - N/A   Overcast
11:00 PM 77.0 °F - 75.2 °F 94% 29.83 in 6.2 mi Calm Calm - N/A   Overcast
11:30 PM 77.0 °F - 75.2 °F 94% 29.83 in 6.2 mi Calm Calm - N/A   Overcast